星链-37115(STARLINK-37115)

导读

STARLINK-37115(NORAD编号68297)是美国SpaceX公司星链(Starlink)卫星互联网星座的一颗第二代低轨通信卫星,属于星链Gen2星座组网卫星之一,运行在近地轨道(LEO)。星链项目旨在通过大规模低轨卫星组网,为全球提供高速低延迟宽带互联网服务,覆盖偏远地区、海洋和空中等传统网络难以覆盖的区域。该卫星配备了星链标准的相控阵天线、氪离子推进系统和自主碰撞规避装置,支持星间激光通信,可为用户提供稳定的互联网接入服务。作为星链持续扩张星座的组成部分,它目前处于在轨运行状态,参与全球卫星互联网组网,服务民用及部分特殊领域通信需求,同时延续了星链卫星低成本批量生产的特点。

Basic Information
目录编号:
68297
目录名称:
STARLINK-37115
国际标识:
2026-057D
轨道中心:
EARTH
卫星名称:
星链-37115
卫星全名:
星链-37115(STARLINK-37115)
卫星状态:
在轨 (已飞行168 天)
发射日期:
2026-03-20 UTC
国别 :
美国 (US)
星等 :
--
Orbit Information
数据来源 国际轨道数据
星历时间: 2026-09-04T03:36:46+0800
21小时前
查看轨道信息
半长轴: 6843.643km
偏心率: 0.0000241
轨道倾角: 97.281°
近地点辐角 90.491°
升交点赤经 12.404°
平近点角 269.636°
近地点: 465.341km
远地点: 465.671km
周期: 93.905分钟
每日圈数: 15.334575
Detailed Information
固有亮度:
5
最大亮度:
2.5
卫星平台:
Starlink V1.0
覆盖范围:
全球
运营商:
太空探索技术公司
运营商所在国:
美国
制造商(研发单位):
太空探索技术公司
制造商所在国:
美国
使用方式:
暂无
Satellite Introduction
Starlink 计划是 SpaceX 推出的全球卫星互联网项目,通过发射低轨道卫星,为全球尤其是偏远地区提供高速、低延迟的互联网服务。自 2019 年起,Starlink 已部署数千颗卫星,旨在缩小全球数字鸿沟,推动互联网普及。该项目还为军事、航空等行业提供通信支持,带来广泛经济效益。
2D Orbit Map
3D Orbit Map
Orbit Altitude Analysis Chart
Orbit Inclination Analysis Chart
Orbit Comprehensive Analysis Chart
View Comprehensive Chart
Conjunction Data List
Event ID Objects TCA Miss Dist (km) Collision Risk Probability Collision Risk Index (CRI) Action
CDM_260906-192505-326606-829721
2026-09-06T
19:25:47+0000
1.610 km
极远距离
4.114432E-6 低风险 0.47
CDM_260905-110804-284006-829722
2026-09-05T
11:08:23+0000
1.748 km
极远距离
2.488279E-6 低风险 0.43
CDM_260906-214805-263506-829721
2026-09-06T
21:48:10+0000
2.263 km
极远距离
2.063809E-6 低风险 0.41
CDM_260830-002306-546406-829721
2026-08-30T
00:23:41+0000
2.881 km
极远距离
1.400151E-6 低风险 0.38